[[{"header":{"parameterUnit":"m.s-1","parameterCategory":2,"la1":30.2991,"la2":30.254,"lo1":-89.0895,"lo2":-89.0444,"dy":0.0017,"dx":0.0017,"nx":28,"ny":28,"refTime":"2023-08-26T03:00:00:Z","depth":"0","parameterNumber":2,"parameterNumberName":"U-component_of_CURRENTS"},"data":[0,0,0,0,0,0,0,0,0,0,0,0,0,0,0,0,0,0,0,0,0,0,0,0,0,0,0,0,0,0,0,0,0,0,0,0,0,0,0,0,0,0,0,0,0,0,0,0,0,0,0,0,0,0,0,0,0,0,0.3199,0.32,0,0.3225,0.3225,0.3225,0.3214,0.3214,0.3214,0.3213,0.3189,0.3189,0.3188,0,0,0,0,0,0,0,0,0,0,0,0,0,0.3074,0.3076,0.3199,0.32,0.32,0.3225,0.3225,0.3225,0.3214,0.3214,0.3214,0.3213,0.3189,0.3189,0.3188,0,0,0,0,0,0,0,0,0,0,0,0,0,0.3113,0.3077,0.3199,0.3201,0.3202,0.3225,0.3225,0.3225,0.3214,0.3214,0.3213,0.3213,0.319,0.3189,0.3188,0.3191,0,0,0.3186,0.3186,0,0,0,0,0,0,0,0,0.3111,0.3117,0.32,0.3201,0.3202,0.322,0.3172,0.3212,0.3214,0.3205,0.3213,0.3213,0.3198,0.3197,0.3197,0.319,0.3189,0.3186,0.3186,0.3186,0.3185,0,0,0,0,0,0,0,0.3108,0.3115,0.3205,0.3201,0.3202,0.3179,0.3184,0.3179,0.3199,0.3206,0.3206,0.3216,0.3198,0.3197,0.3196,0.3188,0.3186,0.3186,0.3185,0.3185,0.3229,0.323,0,0,0,0,0,0,0.3118,0.3113,0.3204,0.3206,0.316,0.3182,0.3187,0.3211,0.32,0.3199,0.3216,0.3216,0.3199,0.3197,0.3195,0.3235,0.3186,0.3185,0.3185,0.3227,0.3229,0.3231,0,0,0,0,0,0,0.3115,0.3126,0.3203,0.3162,0.3171,0.3185,0.3211,0.3212,0.322,0.3209,0.3207,0.3225,0.3198,0.3196,0.321,0.3232,0.3185,0.3184,0.3225,0.3228,0.323,0.329,0,0,0,0,0,0,0.3112,0.3126,0.3136,0.3164,0.3174,0.3228,0.3212,0.3213,0.3228,0.3227,0.3216,0.3213,0.3198,0.3211,0.3209,0.3231,0.3184,0.3223,0.3226,0.3229,0.3286,0.3295,0.3301,0,0,0,0,0,0.3108,0.3125,0.3136,0.3147,0.3192,0.3229,0.3232,0.3236,0.3229,0.324,0.3237,0.3214,0.3228,0.3212,0.3209,0.3231,0.3222,0.3225,0.3229,0.3283,0.3293,0.3301,0,0,0,0,0,0,0.3073,0.3127,0.314,0.3172,0.3205,0.3229,0.3238,0.3244,0.325,0.3248,0.3231,0.3229,0.3251,0.3236,0.3218,0.3254,0.3222,0.3225,0.3264,0.3273,0.3281,0.3284,0.3183,0,0,0,0,0,0.3074,0.3102,0.3151,0.3176,0.3197,0.322,0.3232,0.3243,0.3258,0.326,0.3254,0.3253,0.3263,0.3263,0.3266,0.3281,0.3298,0.3296,0.3304,0.331,0.3312,0.3353,0.3365,0.3242,0.3242,0.3242,0,0,0.3065,0.3101,0.3114,0.317,0.3194,0.3227,0.3225,0.3257,0.3281,0.3256,0.3276,0.3278,0.3274,0.3298,0.3306,0.3287,0.3363,0.3314,0.332,0.3319,0.3358,0.337,0.3381,0.3244,0.3244,0.3244,0,0,0.3067,0.3102,0.3127,0.3164,0.3215,0.3232,0.3247,0.3283,0.3298,0.3326,0.3318,0.3337,0.3342,0.3349,0.3352,0.3403,0.3403,0.3404,0.344,0.348,0.3491,0.35,0.3575,0.359,0.3405,0.3405,0.3405,0,0.305,0.31,0.3137,0.3178,0.3207,0.3239,0.3272,0.3297,0.333,0.3346,0.3341,0.3374,0.3368,0.3404,0.3424,0.3419,0.3454,0.3404,0.349,0.3499,0.3507,0.3582,0.3598,0.3408,0.3408,0.3408,0.3407,0,0.3081,0.3119,0.3142,0.3203,0.3234,0.3273,0.3322,0.335,0.3368,0.3389,0.3435,0.3443,0.3461,0.3469,0.3461,0.3519,0.3532,0.3497,0.3466,0.3523,0.3599,0.3615,0.3413,0.3412,0.3411,0.341,0,0,0.3039,0.3141,0.3147,0.3181,0.3255,0.3283,0.3334,0.3386,0.3419,0.3455,0.3494,0.3527,0.3535,0.354,0.3542,0.3576,0.3676,0.3565,0.3566,0.3639,0.3804,0.3841,0.3861,0.3657,0.3659,0.3661,0.3847,0,0.3049,0.3123,0.317,0.3225,0.3267,0.332,0.3362,0.3412,0.3454,0.3499,0.3532,0.3564,0.3563,0.3575,0.3617,0.3646,0.3714,0.3631,0.3737,0.3741,0.3765,0.3878,0.3723,0.3877,0.3862,0.3865,0.3867,0,0.3058,0.311,0.3171,0.3249,0.327,0.3302,0.3375,0.3418,0.3495,0.3534,0.3586,0.3606,0.367,0.365,0.3771,0.372,0.3779,0.3809,0.3816,0.3834,0.3806,0.381,0.3906,0.3829,0.3891,0.3889,0.3887,0,0.301,0.3102,0.3146,0.3179,0.3273,0.3301,0.3341,0.342,0.3468,0.3549,0.3602,0.3667,0.3719,0.3781,0.3875,0.382,0.402,0.3943,0.4049,0.4054,0.3933,0.3924,0.3959,0.4053,0.4052,0.4052,0.4051,0,0.3003,0.3037,0.3128,0.3157,0.3202,0.3272,0.3323,0.3385,0.3473,0.3539,0.3612,0.3682,0.3755,0.3873,0.3921,0.4071,0.4073,0.4095,0.4111,0.3956,0.3947,0.3881,0.3831,0.4059,0.4057,0.4056,0.4055,0,0.295,0.3014,0.3066,0.3158,0.3183,0.3211,0.3306,0.3347,0.3454,0.3549,0.3578,0.3719,0.3871,0.3992,0.4119,0.4157,0.4166,0.4319,0.4163,0.4157,0.4124,0.4084,0.4005,0.389,0.4431,0.4433,0.4435,0,0.2941,0.2965,0.3048,0.3066,0.3106,0.3162,0.3201,0.3314,0.3374,0.3568,0.3613,0.3799,0.3914,0.4166,0.4258,0.4409,0.4271,0.4364,0.4216,0.4146,0.4112,0.3928,0.382,0.4097,0.4096,0.4095,0.4094,0,0.2913,0.2934,0.297,0.3017,0.3054,0.3096,0.3171,0.3218,0.3367,0.3469,0.361,0.3708,0.3988,0.4059,0.4306,0.4361,0.4149,0.4351,0.4289,0.3886,0.3672,0.3559,0.3985,0.4086,0.4087,0.4088,0.4088,0.4088,0.2878,0.2885,0.2926,0.2954,0.2997,0.3025,0.3017,0.3119,0.3202,0.3325,0.3505,0.3624,0.3852,0.4144,0.4187,0.4208,0.4144,0.4099,0.4074,0.391,0.3725,0.4179,0.4285,0.4287,0.4288,0.429,0.4291,0,0.2831,0.2838,0.2863,0.2881,0.2879,0.2934,0.2986,0.2957,0.3004,0.3174,0.3284,0.3525,0.3658,0.3832,0.4005,0.3943,0.3713,0.386,0.3522,0.3442,0.3868,0.3779,0.3765,0.3765,0.3765,0.3765,0.3765,0.3765,0.2804,0.2791,0.2797,0.2763,0.2765,0.2715,0.2712,0.2703,0.2777,0.2868,0.2989,0.3145,0.3505,0.3785,0.3802,0.372,0.3441,0.3319,0.3314,0.3593,0.361,0.3625,0.353,0.3465,0.3464,0.2703,0.2698,0.2694]},{"header":{"parameterUnit":"m.s-1","parameterCategory":2,"la1":30.2991,"la2":30.254,"lo1":-89.0895,"lo2":-89.0444,"dy":0.0017,"dx":0.0017,"nx":28,"ny":28,"refTime":"2023-08-26T03:00:00:Z","depth":"0","parameterNumber":3,"parameterNumberName":"V-component_of_CURRENTS"},"data":[0,0,0,0,0,0,0,0,0,0,0,0,0,0,0,0,0,0,0,0,0,0,0,0,0,0,0,0,0,0,0,0,0,0,0,0,0,0,0,0,0,0,0,0,0,0,0,0,0,0,0,0,0,0,0,0,0,0,-0.0873,-0.0874,0,-0.0967,-0.0968,-0.0969,-0.1024,-0.1024,-0.1024,-0.1024,-0.1248,-0.1253,-0.1259,0,0,0,0,0,0,0,0,0,0,0,0,0,-0.0806,-0.0807,-0.0873,-0.0874,-0.0875,-0.0967,-0.0968,-0.097,-0.1024,-0.1024,-0.1024,-0.1024,-0.1246,-0.1253,-0.126,0,0,0,0,0,0,0,0,0,0,0,0,0,-0.0864,-0.0807,-0.0873,-0.0911,-0.0915,-0.0966,-0.0968,-0.097,-0.1024,-0.1024,-0.1024,-0.1024,-0.1243,-0.1252,-0.1261,-0.1318,0,0,-0.1288,-0.1292,0,0,0,0,0,0,0,0,-0.086,-0.0867,-0.0905,-0.0908,-0.0913,-0.0981,-0.1026,-0.1092,-0.1024,-0.0986,-0.1024,-0.1024,-0.1169,-0.1184,-0.1204,-0.1328,-0.1338,-0.1289,-0.1295,-0.1298,-0.1301,0,0,0,0,0,0,0,-0.0856,-0.0863,-0.0913,-0.0905,-0.0911,-0.0945,-0.0953,-0.1039,-0.1081,-0.0989,-0.0993,-0.0998,-0.1172,-0.1195,-0.121,-0.1341,-0.1289,-0.1297,-0.1302,-0.1306,-0.1494,-0.1494,0,0,0,0,0,0,-0.0835,-0.0859,-0.091,-0.0916,-0.0883,-0.0946,-0.0955,-0.0962,-0.1078,-0.1093,-0.0998,-0.1001,-0.118,-0.1199,-0.1218,-0.1264,-0.1298,-0.1307,-0.1312,-0.1494,-0.1494,-0.1493,0,0,0,0,0,0,-0.0834,-0.0839,-0.0907,-0.0887,-0.0898,-0.0946,-0.0954,-0.0964,-0.0983,-0.1083,-0.1101,-0.1006,-0.118,-0.1206,-0.1276,-0.1274,-0.1311,-0.1319,-0.1495,-0.1494,-0.1494,-0.1375,0,0,0,0,0,0,-0.0831,-0.0838,-0.0837,-0.0886,-0.0898,-0.0924,-0.0954,-0.0965,-0.0985,-0.0989,-0.1096,-0.1117,-0.1182,-0.1262,-0.1285,-0.1287,-0.1326,-0.1495,-0.1494,-0.1494,-0.138,-0.1371,-0.1363,0,0,0,0,0,-0.0829,-0.0816,-0.0836,-0.0842,-0.0894,-0.0923,-0.0933,-0.097,-0.0985,-0.0988,-0.1053,-0.1113,-0.1273,-0.1269,-0.1296,-0.1301,-0.1496,-0.1495,-0.1494,-0.1383,-0.1372,-0.1363,0,0,0,0,0,0,-0.0772,-0.0822,-0.0845,-0.0845,-0.0878,-0.0931,-0.0933,-0.0964,-0.1017,-0.1023,-0.1116,-0.1141,-0.1199,-0.1267,-0.1259,-0.1351,-0.1393,-0.1397,-0.1299,-0.129,-0.1282,-0.125,-0.1334,0,0,0,0,0,-0.0762,-0.0771,-0.0822,-0.0818,-0.0833,-0.0885,-0.0901,-0.0929,-0.098,-0.1002,-0.1074,-0.1151,-0.1218,-0.1264,-0.1334,-0.1395,-0.1411,-0.1414,-0.1405,-0.1398,-0.139,-0.1406,-0.1398,-0.149,-0.149,-0.149,0,0,-0.0735,-0.0764,-0.0767,-0.0808,-0.0836,-0.0848,-0.0894,-0.0911,-0.0925,-0.1023,-0.1061,-0.1127,-0.1226,-0.1279,-0.1312,-0.1337,-0.1371,-0.1397,-0.1389,-0.1386,-0.1404,-0.1395,-0.1387,-0.149,-0.149,-0.149,0,0,-0.0684,-0.0714,-0.0709,-0.0736,-0.0777,-0.0812,-0.0812,-0.0867,-0.0897,-0.0946,-0.1009,-0.1064,-0.1179,-0.1235,-0.1283,-0.1276,-0.1321,-0.1304,-0.1249,-0.1264,-0.1256,-0.1249,-0.1211,-0.1202,-0.1306,-0.1306,-0.1305,0,-0.0643,-0.0655,-0.0708,-0.0712,-0.0723,-0.0789,-0.0782,-0.0824,-0.0893,-0.0911,-0.0942,-0.1072,-0.1155,-0.1214,-0.1207,-0.1257,-0.1252,-0.1276,-0.1249,-0.1244,-0.1239,-0.1202,-0.1194,-0.13,-0.1301,-0.1301,-0.1302,0,-0.0602,-0.0609,-0.0603,-0.0635,-0.0654,-0.0657,-0.0718,-0.0741,-0.0785,-0.0828,-0.0888,-0.099,-0.1061,-0.11,-0.1158,-0.1171,-0.117,-0.1227,-0.1266,-0.1222,-0.1186,-0.1179,-0.1292,-0.1294,-0.1295,-0.1297,0,0,-0.0494,-0.0562,-0.0554,-0.0563,-0.0615,-0.0621,-0.0642,-0.0678,-0.0675,-0.0761,-0.0759,-0.0887,-0.093,-0.0986,-0.1066,-0.1094,-0.1047,-0.1137,-0.1141,-0.1081,-0.1029,-0.0944,-0.0929,-0.1094,-0.1093,-0.1093,-0.1,0,-0.0437,-0.0438,-0.0484,-0.0467,-0.0472,-0.0531,-0.054,-0.0582,-0.0625,-0.0639,-0.0747,-0.0787,-0.0894,-0.0916,-0.0959,-0.1034,-0.1031,-0.1063,-0.1097,-0.1097,-0.1014,-0.092,-0.0904,-0.0813,-0.0994,-0.0993,-0.0992,0,-0.0373,-0.0386,-0.0372,-0.0399,-0.0401,-0.0395,-0.0405,-0.0423,-0.047,-0.0503,-0.056,-0.0639,-0.0705,-0.079,-0.088,-0.0893,-0.0938,-0.0993,-0.0992,-0.0953,-0.1001,-0.0899,-0.0795,-0.1025,-0.0982,-0.0983,-0.0983,0,-0.0281,-0.0298,-0.0286,-0.0295,-0.0336,-0.0324,-0.0333,-0.037,-0.0356,-0.0401,-0.0369,-0.0498,-0.0517,-0.0629,-0.0746,-0.0807,-0.0803,-0.0909,-0.0865,-0.0859,-0.0872,-0.0867,-0.0983,-0.0931,-0.0931,-0.0931,-0.0931,0,-0.0209,-0.0193,-0.024,-0.0229,-0.0185,-0.024,-0.0185,-0.0213,-0.0209,-0.0133,-0.028,-0.023,-0.0475,-0.0514,-0.0656,-0.0702,-0.0728,-0.0814,-0.0824,-0.0824,-0.0816,-0.1043,-0.1172,-0.0928,-0.0928,-0.0929,-0.093,0,-0.0124,-0.0159,-0.0133,-0.015,-0.0144,-0.0106,-0.0071,-0.0025,-0.0038,0.0074,0.0077,-0.0008,-0.0041,-0.0237,-0.0386,-0.0538,-0.0724,-0.0635,-0.0585,-0.0591,-0.0795,-0.0916,-0.0984,-0.1086,-0.0587,-0.0584,-0.0582,0,-0.01,-0.008,-0.0056,-0.0006,-0.0005,0.004,0.0087,0.0067,0.0151,0.0245,0.0338,0.0318,0.0376,0.0191,-0.0095,-0.0281,-0.0541,-0.0422,-0.0558,-0.0759,-0.0905,-0.1008,-0.1101,-0.0517,-0.0515,-0.0513,-0.0511,0,-0.0028,-0.0008,0.0026,0.0129,0.0196,0.0266,0.0351,0.0444,0.0491,0.0622,0.081,0.0864,0.0692,0.0507,0.0205,0.001,-0.058,-0.038,-0.0633,-0.0869,-0.0948,-0.1066,-0.06,-0.0492,-0.0494,-0.0495,-0.0496,-0.0497,0.0047,0.0108,0.0185,0.0295,0.0385,0.0536,0.0647,0.0781,0.098,0.1226,0.1209,0.1364,0.0985,0.0587,0.0283,-0.033,-0.0365,-0.0563,-0.0687,-0.0769,-0.0892,-0.0331,-0.0215,-0.0216,-0.0216,-0.0216,-0.0216,0,0.0163,0.0244,0.035,0.0516,0.0672,0.0666,0.0864,0.1013,0.1324,0.1523,0.1715,0.1639,0.1195,0.063,-0.0146,-0.059,-0.0839,-0.087,-0.1092,-0.1173,-0.0712,-0.0739,-0.0677,-0.0677,-0.0677,-0.0677,-0.0676,-0.0676,0.0243,0.0387,0.0455,0.0756,0.0876,0.1092,0.1223,0.1451,0.1632,0.1939,0.2047,0.2076,0.1642,0.0233,-0.0799,-0.1062,-0.1435,-0.1444,-0.1642,-0.1428,-0.1414,-0.14,-0.146,-0.155,-0.1551,-0.2091,-0.2096,-0.2101]}],[{"header":{"parameterUnit":"m.s-1","parameterCategory":2,"la1":30.2991,"la2":30.254,"lo1":-89.0895,"lo2":-89.0444,"dy":0.0017,"dx":0.0017,"nx":28,"ny":28,"refTime":"2023-08-26T03:00:00:Z","depth":"2","parameterNumber":2,"parameterNumberName":"U-component_of_CURRENTS"},"data":[0,0,0,0,0,0,0,0,0,0,0,0,0,0,0,0,0,0,0,0,0,0,0,0,0,0,0,0,0,0,0,0,0,0,0,0,0,0,0,0,0,0,0,0,0,0,0,0,0,0,0,0,0,0,0,0,0,0,0.2557,0.2559,0,0.2582,0.2581,0.2579,0.2653,0.2657,0.2661,0.2664,0.2799,0.28,0.28,0,0,0,0,0,0,0,0,0,0,0,0,0,0.2372,0.2374,0.2557,0.2559,0.2561,0.2582,0.2581,0.2579,0.2653,0.2657,0.2662,0.2666,0.2799,0.2799,0.28,0,0,0,0,0,0,0,0,0,0,0,0,0,0.2409,0.2375,0.2556,0.2617,0.2625,0.2583,0.258,0.2578,0.2652,0.2657,0.2663,0.2668,0.2799,0.2799,0.28,0.269,0,0,0.28,0.2801,0,0,0,0,0,0,0,0,0.2407,0.2413,0.2606,0.2613,0.2622,0.264,0.2566,0.2629,0.265,0.2618,0.2664,0.2671,0.2767,0.277,0.2729,0.2697,0.2702,0.28,0.2801,0.2801,0.2801,0,0,0,0,0,0,0,0.2405,0.2412,0.2544,0.2609,0.2618,0.2577,0.2587,0.2575,0.2645,0.2621,0.2632,0.2669,0.277,0.2728,0.2733,0.2704,0.28,0.2801,0.2801,0.2801,0.2803,0.2803,0,0,0,0,0,0,0.2452,0.241,0.2544,0.2547,0.2551,0.2578,0.2589,0.261,0.2644,0.266,0.2664,0.2673,0.2725,0.2733,0.2739,0.2828,0.2801,0.2801,0.2801,0.2803,0.2803,0.2803,0,0,0,0,0,0,0.2447,0.2462,0.2543,0.2498,0.2509,0.258,0.26,0.2608,0.2659,0.268,0.2694,0.2722,0.273,0.2739,0.2769,0.2827,0.2801,0.2801,0.2803,0.2803,0.2803,0.2868,0,0,0,0,0,0,0.2441,0.2459,0.2463,0.2501,0.2514,0.2568,0.2597,0.2606,0.2679,0.2691,0.2731,0.2744,0.2735,0.2769,0.2769,0.2827,0.2801,0.2803,0.2803,0.2803,0.2866,0.287,0.2874,0,0,0,0,0,0.2433,0.2454,0.2462,0.2479,0.2525,0.2571,0.257,0.2623,0.2678,0.2688,0.2709,0.2747,0.277,0.2767,0.2769,0.2828,0.2803,0.2803,0.2803,0.2864,0.2869,0.2874,0,0,0,0,0,0,0.2377,0.2466,0.2477,0.2521,0.2562,0.2594,0.2604,0.2659,0.2673,0.2701,0.2725,0.2735,0.2788,0.2779,0.2776,0.2823,0.2801,0.2801,0.2847,0.2852,0.2856,0.2882,0.2802,0,0,0,0,0,0.2363,0.2413,0.247,0.251,0.2521,0.2566,0.259,0.2643,0.268,0.2696,0.2724,0.2747,0.2762,0.2792,0.2785,0.2799,0.2807,0.2841,0.2845,0.2848,0.2867,0.289,0.2898,0.2802,0.2802,0.2802,0,0,0.2382,0.2416,0.2461,0.2503,0.2518,0.2547,0.259,0.2657,0.2703,0.2704,0.275,0.2761,0.2766,0.2783,0.2809,0.2803,0.2879,0.2848,0.2852,0.2869,0.289,0.29,0.2909,0.2802,0.2802,0.2802,0,0,0.2402,0.2435,0.246,0.2484,0.2539,0.257,0.2617,0.2671,0.2706,0.2748,0.2763,0.2804,0.2826,0.2829,0.284,0.2857,0.2894,0.2879,0.2933,0.2954,0.2964,0.2972,0.3001,0.3011,0.2888,0.2888,0.2888,0,0.2393,0.2434,0.2475,0.2477,0.2516,0.2599,0.2631,0.266,0.2731,0.2756,0.2789,0.2839,0.2847,0.2887,0.2894,0.2875,0.2895,0.2922,0.2964,0.2971,0.2979,0.3006,0.3017,0.2892,0.2891,0.2891,0.2891,0,0.2414,0.2446,0.2461,0.2498,0.2536,0.2589,0.2652,0.2693,0.2771,0.2817,0.2891,0.2889,0.2931,0.2945,0.2932,0.2992,0.2993,0.2964,0.2961,0.2993,0.3019,0.3029,0.2896,0.2895,0.2894,0.2893,0,0,0.2388,0.2462,0.2462,0.2483,0.2559,0.2599,0.2661,0.2732,0.2804,0.2869,0.2942,0.2978,0.3017,0.3028,0.3031,0.306,0.3122,0.3049,0.3049,0.3095,0.3193,0.3133,0.3138,0.3113,0.3115,0.3117,0.3194,0,0.2376,0.2402,0.245,0.2513,0.2539,0.2615,0.2667,0.2752,0.2841,0.2914,0.2967,0.3034,0.3041,0.3079,0.3111,0.3116,0.3151,0.3106,0.314,0.3141,0.3098,0.3148,0.2929,0.2974,0.3203,0.3205,0.3206,0,0.2354,0.2382,0.2425,0.2524,0.2538,0.2595,0.2708,0.2768,0.2881,0.295,0.3046,0.3099,0.3166,0.3154,0.323,0.3209,0.3214,0.322,0.3222,0.3154,0.3099,0.2975,0.2983,0.3222,0.3221,0.322,0.3219,0,0.2304,0.2368,0.241,0.2438,0.2548,0.2585,0.2658,0.278,0.2836,0.298,0.3051,0.3157,0.321,0.325,0.3288,0.3268,0.336,0.3315,0.3272,0.3267,0.308,0.3056,0.3362,0.3362,0.3362,0.3361,0.3361,0,0.2274,0.2308,0.2392,0.2414,0.2486,0.2563,0.2648,0.275,0.2862,0.2944,0.3066,0.3149,0.324,0.3306,0.332,0.3344,0.3388,0.3304,0.3289,0.3095,0.3073,0.3278,0.3267,0.3364,0.3364,0.3363,0.3362,0,0.2222,0.2274,0.2322,0.2421,0.2467,0.2511,0.2634,0.2689,0.2822,0.2928,0.2974,0.3148,0.3256,0.3333,0.3404,0.3377,0.34,0.3387,0.3166,0.3123,0.3286,0.3278,0.3351,0.335,0.3349,0.3348,0.3347,0,0.2202,0.2216,0.2313,0.2342,0.2394,0.2467,0.2521,0.2661,0.2729,0.2922,0.2968,0.3122,0.3215,0.3321,0.333,0.3363,0.34,0.3145,0.3051,0.331,0.3288,0.3282,0.3275,0.2833,0.2828,0.2824,0.2821,0,0.2166,0.2192,0.2226,0.2299,0.2355,0.2397,0.2496,0.2533,0.2687,0.2773,0.2898,0.2981,0.3134,0.3092,0.316,0.3135,0.3126,0.3063,0.3394,0.2868,0.2827,0.2804,0.2813,0.2785,0.2788,0.2791,0.2793,0.2794,0.2135,0.2144,0.22,0.2242,0.2295,0.2326,0.2322,0.2413,0.2478,0.2586,0.273,0.2783,0.2871,0.2871,0.2808,0.2774,0.297,0.2831,0.2841,0.2856,0.2781,0.2739,0.2668,0.2671,0.2673,0.2675,0.2677,0,0.2079,0.2112,0.2158,0.2197,0.2181,0.2264,0.2299,0.2255,0.2273,0.2421,0.2489,0.2347,0.2367,0.2454,0.2365,0.2375,0.2325,0.2268,0.2185,0.2225,0.226,0.215,0.1872,0.1869,0.1866,0.1863,0,0,0.2075,0.2077,0.2089,0.2069,0.209,0.2058,0.2037,0.1999,0.2055,0.2047,0.2076,0.2272,0.2406,0.21,0.2082,0.1966,0.2069,0.1893,0.2553,0.2498,0.2528,0.2615,0.2496,0,0,0,0,0]},{"header":{"parameterUnit":"m.s-1","parameterCategory":2,"la1":30.2991,"la2":30.254,"lo1":-89.0895,"lo2":-89.0444,"dy":0.0017,"dx":0.0017,"nx":28,"ny":28,"refTime":"2023-08-26T03:00:00:Z","depth":"2","parameterNumber":3,"parameterNumberName":"V-component_of_CURRENTS"},"data":[0,0,0,0,0,0,0,0,0,0,0,0,0,0,0,0,0,0,0,0,0,0,0,0,0,0,0,0,0,0,0,0,0,0,0,0,0,0,0,0,0,0,0,0,0,0,0,0,0,0,0,0,0,0,0,0,0,0,0.0293,0.0292,0,0.0258,0.0258,0.0258,0.0163,0.016,0.0158,0.0156,-0.0119,-0.0124,-0.0128,0,0,0,0,0,0,0,0,0,0,0,0,0,0.0259,0.0261,0.0293,0.0292,0.0291,0.0258,0.0258,0.0258,0.0163,0.016,0.0157,0.0154,-0.0117,-0.0123,-0.0129,0,0,0,0,0,0,0,0,0,0,0,0,0,0.0259,0.0262,0.0293,0.0236,0.0231,0.0258,0.0258,0.0258,0.0164,0.016,0.0157,0.0153,-0.0115,-0.0122,-0.013,-0.01,0,0,-0.0152,-0.0156,0,0,0,0,0,0,0,0,0.0259,0.0261,0.0246,0.024,0.0234,0.0207,0.0145,0.0125,0.0165,0.0195,0.0156,0.0151,-0.0033,-0.0047,-0.0035,-0.0113,-0.0125,-0.0153,-0.0158,-0.0161,-0.0163,0,0,0,0,0,0,0,0.0259,0.0262,0.0284,0.0245,0.0238,0.0206,0.0202,0.0142,0.0102,0.0192,0.0184,0.0173,-0.0037,-0.0027,-0.0043,-0.0129,-0.0153,-0.016,-0.0164,-0.0167,-0.0285,-0.0283,0,0,0,0,0,0,0.0259,0.0263,0.0285,0.0283,0.0232,0.0209,0.0205,0.0223,0.0108,0.0087,0.0176,0.0169,-0.0012,-0.0034,-0.0053,-0.0123,-0.0161,-0.0168,-0.0172,-0.0286,-0.0284,-0.0283,0,0,0,0,0,0,0.026,0.0263,0.0287,0.0265,0.0265,0.0213,0.0234,0.0224,0.0181,0.0097,0.0072,0.0135,-0.0016,-0.0043,-0.012,-0.0132,-0.0171,-0.0178,-0.0287,-0.0285,-0.0284,-0.0202,0,0,0,0,0,0,0.0259,0.0265,0.0279,0.0267,0.0266,0.0281,0.0237,0.0226,0.0181,0.0169,0.0055,0.0029,-0.0021,-0.0108,-0.0128,-0.0143,-0.0184,-0.0289,-0.0287,-0.0284,-0.0206,-0.0197,-0.019,0,0,0,0,0,0.0259,0.0289,0.0281,0.0283,0.029,0.0281,0.0279,0.0231,0.0182,0.0175,0.0106,0.003,-0.0106,-0.0113,-0.0136,-0.0154,-0.029,-0.0287,-0.0284,-0.021,-0.0199,-0.019,0,0,0,0,0,0,0.0297,0.0282,0.0272,0.0302,0.0282,0.0262,0.0264,0.0214,0.0162,0.014,0.0044,0.0016,-0.0052,-0.0104,-0.0109,-0.0174,-0.021,-0.0211,-0.0145,-0.0136,-0.0128,-0.0139,-0.019,0,0,0,0,0,0.0315,0.0318,0.0305,0.0324,0.0326,0.0289,0.0276,0.0238,0.0191,0.0163,0.0087,0.0015,-0.0041,-0.0094,-0.0141,-0.0186,-0.023,-0.0208,-0.02,-0.0193,-0.0214,-0.0254,-0.0252,-0.0273,-0.0273,-0.0273,0,0,0.0329,0.0325,0.0325,0.0329,0.0324,0.0328,0.0272,0.0254,0.0238,0.014,0.0098,0.0036,-0.0043,-0.0079,-0.0116,-0.014,-0.0202,-0.0189,-0.0183,-0.0208,-0.0251,-0.0249,-0.0248,-0.0271,-0.0271,-0.0271,0,0,0.0354,0.0371,0.0376,0.0379,0.0361,0.0342,0.0323,0.0291,0.0261,0.0217,0.0153,0.0081,-0.0005,-0.0053,-0.0094,-0.0073,-0.015,-0.0087,-0.0073,-0.011,-0.011,-0.011,-0.0135,-0.0138,-0.0091,-0.0091,-0.0091,0,0.0367,0.0392,0.0376,0.0397,0.0402,0.0342,0.0355,0.0334,0.0269,0.0246,0.0203,0.0083,0.0007,-0.0051,-0.004,-0.0062,-0.0086,-0.0107,-0.0102,-0.0103,-0.0105,-0.0131,-0.0135,-0.0087,-0.0087,-0.0088,-0.0088,0,0.0399,0.0424,0.044,0.0444,0.0446,0.0452,0.0427,0.041,0.0351,0.0304,0.0231,0.0149,0.0069,0.0042,-0.0007,-0.0049,-0.0061,-0.0079,-0.013,-0.0098,-0.0126,-0.0133,-0.0081,-0.0082,-0.0084,-0.0085,0,0,0.0413,0.0448,0.0457,0.0481,0.0476,0.0485,0.0481,0.0454,0.0437,0.0354,0.0325,0.021,0.0144,0.0095,0.0032,-0.0023,-0.005,-0.0058,-0.0062,-0.0089,-0.0122,-0.0143,-0.0152,-0.0063,-0.0064,-0.0065,-0.0128,0,0.0438,0.0491,0.0495,0.054,0.0571,0.0555,0.0566,0.0531,0.0473,0.0441,0.0329,0.0271,0.0174,0.0138,0.0068,-0.0018,-0.0068,-0.0032,-0.0146,-0.015,-0.0178,-0.0161,-0.0137,-0.0192,-0.0134,-0.0135,-0.0136,0,0.0471,0.0502,0.0556,0.061,0.0626,0.0636,0.0648,0.065,0.0589,0.0549,0.0451,0.0362,0.0257,0.0191,0.0022,0.0053,-0.0034,-0.0108,-0.0112,-0.0176,-0.0184,-0.0221,-0.0207,-0.0148,-0.0147,-0.0146,-0.0145,0,0.0498,0.0553,0.0597,0.062,0.0661,0.0683,0.0697,0.0664,0.0684,0.0612,0.0601,0.0445,0.04,0.0242,0.0059,0.0048,-0.0105,-0.0129,-0.0234,-0.0235,-0.0264,-0.0267,-0.0239,-0.0239,-0.0239,-0.0238,-0.0238,0,0.0539,0.0581,0.0615,0.0653,0.0711,0.0728,0.0777,0.0768,0.0767,0.0792,0.0657,0.0636,0.0411,0.0286,0.0105,-0.0087,-0.0072,-0.0242,-0.026,-0.023,-0.0229,-0.0238,-0.0237,-0.0241,-0.024,-0.024,-0.0239,0,0.0575,0.0594,0.0662,0.0714,0.0729,0.078,0.086,0.0896,0.0885,0.0922,0.091,0.0791,0.0621,0.039,0.0157,-0.0002,-0.0198,-0.0263,-0.0211,-0.0223,-0.0312,-0.0306,-0.0391,-0.0392,-0.0393,-0.0395,-0.0395,0,0.0605,0.0636,0.0714,0.0759,0.0784,0.0858,0.0915,0.0946,0.0992,0.1009,0.1034,0.0899,0.0795,0.0445,0.0137,-0.0169,-0.0201,-0.0321,-0.0359,-0.0323,-0.0332,-0.0324,-0.0316,-0.035,-0.0351,-0.0351,-0.0351,0,0.066,0.0681,0.0741,0.0825,0.0889,0.0985,0.1064,0.1122,0.1174,0.1197,0.12,0.112,0.0803,0.0488,0.0097,-0.0113,-0.0282,-0.0338,-0.0313,-0.0316,-0.0291,-0.0297,-0.029,-0.0355,-0.0354,-0.0354,-0.0354,-0.0354,0.0702,0.0753,0.082,0.0903,0.0985,0.1091,0.1171,0.1251,0.1336,0.1369,0.1312,0.1206,0.0891,0.0361,0.003,-0.0306,-0.0306,-0.0422,-0.0418,-0.0415,-0.04,-0.0378,-0.0455,-0.0455,-0.0455,-0.0455,-0.0456,0,0.0756,0.0808,0.0891,0.0993,0.1088,0.1124,0.1256,0.1324,0.1412,0.1434,0.1406,0.11,0.0764,0.0408,-0.0089,-0.0389,-0.0412,-0.048,-0.0434,-0.0429,-0.0426,-0.0409,-0.0468,-0.0468,-0.0469,-0.047,0,0,0.078,0.0862,0.09,0.1047,0.1128,0.1255,0.1333,0.1404,0.1448,0.1451,0.1392,0.1269,0.086,0.0508,0.01,-0.0175,-0.0235,-0.0239,-0.0201,-0.0094,-0.0086,-0.0369,-0.0336,0,0,0,0,0]}],[{"header":{"parameterUnit":"m.s-1","parameterCategory":2,"la1":30.2991,"la2":30.254,"lo1":-89.0895,"lo2":-89.0444,"dy":0.0017,"dx":0.0017,"nx":28,"ny":28,"refTime":"2023-08-26T03:00:00:Z","depth":"4","parameterNumber":2,"parameterNumberName":"U-component_of_CURRENTS"},"data":[0,0,0,0,0,0,0,0,0,0,0,0,0,0,0,0,0,0,0,0,0,0,0,0,0,0,0,0,0,0,0,0,0,0,0,0,0,0,0,0,0,0,0,0,0,0,0,0,0,0,0,0,0,0,0,0,0,0,0.1115,0.1115,0,0.118,0.1181,0.1182,0.1175,0.1174,0.1173,0.1172,0.1264,0.1267,0.1271,0,0,0,0,0,0,0,0,0,0,0,0,0,0.1103,0.1102,0.1114,0.1115,0.1116,0.118,0.1181,0.1182,0.1175,0.1174,0.1172,0.1171,0.1263,0.1267,0.1271,0,0,0,0,0,0,0,0,0,0,0,0,0,0.1133,0.1102,0.1114,0.1119,0.112,0.118,0.1181,0.1182,0.1175,0.1174,0.1172,0.117,0.1261,0.1266,0.1272,0.1338,0,0,0.1288,0.129,0,0,0,0,0,0,0,0,0.1131,0.1133,0.1118,0.1119,0.112,0.1166,0.121,0.1235,0.1176,0.1156,0.1171,0.117,0.1234,0.1242,0.1259,0.1343,0.1347,0.1288,0.1291,0.1294,0.1295,0,0,0,0,0,0,0,0.1129,0.1131,0.1142,0.1119,0.112,0.1159,0.116,0.1216,0.1205,0.1157,0.1157,0.1163,0.1235,0.1254,0.1261,0.1348,0.1288,0.1293,0.1296,0.1298,0.1492,0.1494,0,0,0,0,0,0,0.1114,0.1129,0.1139,0.1143,0.112,0.116,0.1162,0.1154,0.1204,0.1209,0.1164,0.1162,0.1246,0.1255,0.1265,0.1361,0.1294,0.1299,0.1302,0.149,0.1492,0.1495,0,0,0,0,0,0,0.1113,0.1114,0.1137,0.1138,0.1143,0.1161,0.1154,0.1156,0.1188,0.1209,0.1214,0.1193,0.1245,0.1257,0.1343,0.1364,0.1301,0.1306,0.1488,0.1491,0.1494,0.1546,0,0,0,0,0,0,0.1112,0.1113,0.1126,0.1136,0.1142,0.1174,0.1155,0.1159,0.1193,0.1191,0.1236,0.1241,0.1244,0.1336,0.1349,0.137,0.131,0.1485,0.1489,0.1493,0.1541,0.155,0.1557,0,0,0,0,0,0.1112,0.1124,0.1126,0.1129,0.1151,0.1175,0.1183,0.1192,0.1196,0.1214,0.1262,0.1241,0.1366,0.1343,0.1358,0.1381,0.1483,0.1488,0.1492,0.1538,0.1548,0.1557,0,0,0,0,0,0,0.1115,0.1125,0.1127,0.1139,0.1159,0.1173,0.1205,0.1211,0.1264,0.1278,0.1292,0.1303,0.1368,0.1385,0.1359,0.1446,0.1412,0.142,0.1442,0.1452,0.146,0.1456,0.1314,0,0,0,0,0,0.1126,0.1139,0.1151,0.1161,0.1181,0.1202,0.1223,0.1229,0.1267,0.1288,0.1321,0.1362,0.1399,0.1435,0.1464,0.1546,0.1555,0.1563,0.1571,0.1577,0.1585,0.1634,0.1646,0.1509,0.1509,0.1509,0,0,0.1123,0.1136,0.114,0.1166,0.119,0.1216,0.1211,0.125,0.1275,0.1295,0.1365,0.1394,0.1425,0.149,0.1521,0.1512,0.1622,0.1583,0.1588,0.1593,0.164,0.1653,0.1665,0.1512,0.1512,0.1511,0,0,0.1133,0.1149,0.1172,0.1194,0.1236,0.125,0.1265,0.1303,0.1331,0.1411,0.1411,0.1472,0.1546,0.1565,0.1585,0.1668,0.1652,0.1665,0.1722,0.1769,0.178,0.179,0.1819,0.1831,0.1682,0.1682,0.1682,0,0.1143,0.1155,0.1183,0.1214,0.1237,0.1265,0.1295,0.133,0.139,0.1424,0.1439,0.1549,0.1579,0.1644,0.1669,0.1685,0.1703,0.168,0.1778,0.1789,0.1798,0.1825,0.1837,0.1685,0.1685,0.1685,0.1684,0,0.1159,0.1183,0.1204,0.1245,0.1278,0.1309,0.1352,0.1403,0.1451,0.1478,0.1569,0.1632,0.1692,0.1708,0.1725,0.1798,0.1785,0.177,0.175,0.1815,0.1839,0.1851,0.169,0.1689,0.1688,0.1687,0,0,0.1149,0.1204,0.1215,0.1237,0.1299,0.1321,0.1389,0.1446,0.1492,0.1571,0.1641,0.1724,0.1757,0.1783,0.1807,0.1865,0.1955,0.186,0.1861,0.188,0.2053,0.1931,0.1932,0.1958,0.1961,0.1963,0.2042,0,0.116,0.1207,0.124,0.1285,0.1314,0.1367,0.1422,0.1481,0.1549,0.1626,0.1701,0.1777,0.1782,0.1837,0.1892,0.194,0.199,0.1934,0.1994,0.1995,0.1873,0.1944,0.1971,0.2051,0.2054,0.2056,0.2058,0,0.117,0.1201,0.125,0.1308,0.133,0.1368,0.1463,0.1517,0.1619,0.1682,0.1769,0.1819,0.1926,0.1924,0.2041,0.2006,0.2037,0.2069,0.2072,0.1947,0.1896,0.1974,0.208,0.2078,0.2076,0.2075,0.2074,0,0.1142,0.1207,0.1244,0.1263,0.1339,0.1389,0.1441,0.1539,0.1605,0.1729,0.1799,0.1896,0.1991,0.2043,0.2117,0.2093,0.2233,0.2198,0.211,0.2101,0.2161,0.2149,0.2271,0.2271,0.2271,0.2271,0.227,0,0.1126,0.1156,0.1239,0.1254,0.1314,0.1385,0.1473,0.1535,0.1657,0.1735,0.183,0.1916,0.2033,0.212,0.2147,0.2171,0.2256,0.2131,0.212,0.2181,0.2171,0.217,0.2157,0.2274,0.2273,0.2272,0.2272,0,0.108,0.1132,0.1174,0.1263,0.13,0.1347,0.1481,0.1539,0.1664,0.178,0.1832,0.1973,0.2085,0.2165,0.2273,0.2213,0.2244,0.2224,0.2295,0.2285,0.2068,0.2058,0.2126,0.2122,0.2119,0.2117,0.2115,0,0.1046,0.107,0.1167,0.1202,0.1247,0.134,0.1403,0.1531,0.1597,0.18,0.184,0.2004,0.2085,0.2134,0.2215,0.2248,0.2222,0.2206,0.2124,0.2074,0.2058,0.2051,0.2045,0.211,0.2109,0.2108,0.2108,0,0.0983,0.1036,0.1076,0.1154,0.122,0.1289,0.1389,0.143,0.1592,0.1719,0.1822,0.1891,0.201,0.2074,0.2119,0.2133,0.2197,0.2174,0.2179,0.2102,0.2056,0.2041,0.2038,0.2097,0.2099,0.21,0.21,0,0.0939,0.0957,0.103,0.1098,0.1173,0.122,0.128,0.1371,0.1457,0.1665,0.1702,0.1867,0.2005,0.2017,0.2058,0.2066,0.2027,0.1942,0.1959,0.1971,0.1881,0.1798,0.1764,0,0,0,0,0,0.0889,0.0919,0.0968,0.1033,0.1107,0.1157,0.1264,0.1331,0.1488,0.152,0.161,0.171,0.1796,0.187,0.1848,0.1979,0.2024,0.1941,0.1932,0.204,0.2052,0.196,0,0,0,0,0,0,0.086,0.0901,0.0942,0.0979,0.1016,0.1085,0.115,0.1248,0.1271,0.1433,0.1486,0.1609,0.1709,0.1805,0.1821,0.1841,0.1799,0.2037,0.2033,0.2034,0.2045,0.2054,0.1963,0,0,0,0,0]},{"header":{"parameterUnit":"m.s-1","parameterCategory":2,"la1":30.2991,"la2":30.254,"lo1":-89.0895,"lo2":-89.0444,"dy":0.0017,"dx":0.0017,"nx":28,"ny":28,"refTime":"2023-08-26T03:00:00:Z","depth":"4","parameterNumber":3,"parameterNumberName":"V-component_of_CURRENTS"},"data":[0,0,0,0,0,0,0,0,0,0,0,0,0,0,0,0,0,0,0,0,0,0,0,0,0,0,0,0,0,0,0,0,0,0,0,0,0,0,0,0,0,0,0,0,0,0,0,0,0,0,0,0,0,0,0,0,0,0,0.0408,0.0408,0,0.0373,0.0373,0.0373,0.0366,0.0367,0.0367,0.0367,0.0301,0.0299,0.0297,0,0,0,0,0,0,0,0,0,0,0,0,0,0.0363,0.0364,0.0408,0.0408,0.0407,0.0373,0.0373,0.0372,0.0366,0.0367,0.0367,0.0367,0.0302,0.03,0.0297,0,0,0,0,0,0,0,0,0,0,0,0,0,0.0361,0.0365,0.0408,0.04,0.0399,0.0374,0.0373,0.0372,0.0366,0.0367,0.0367,0.0368,0.0303,0.03,0.0297,0.0268,0,0,0.0287,0.0286,0,0,0,0,0,0,0,0,0.0361,0.0362,0.0402,0.0401,0.04,0.0375,0.0333,0.0336,0.0366,0.0378,0.0367,0.0368,0.0323,0.0318,0.031,0.0265,0.0262,0.0287,0.0285,0.0284,0.0283,0,0,0,0,0,0,0,0.0361,0.0363,0.0394,0.0401,0.04,0.0362,0.0364,0.0333,0.0347,0.0377,0.0377,0.0373,0.0322,0.0314,0.0309,0.0261,0.0287,0.0284,0.0282,0.0281,0.0194,0.0193,0,0,0,0,0,0,0.0372,0.0364,0.0395,0.0393,0.0382,0.0363,0.0364,0.0382,0.0348,0.0344,0.0373,0.0373,0.0319,0.0312,0.0306,0.0289,0.0284,0.0281,0.0279,0.0194,0.0194,0.0193,0,0,0,0,0,0,0.0371,0.0376,0.0396,0.0376,0.0377,0.0364,0.0384,0.0381,0.038,0.0346,0.0341,0.0376,0.0319,0.0311,0.0286,0.0286,0.028,0.0277,0.0195,0.0194,0.0193,0.0243,0,0,0,0,0,0,0.0371,0.0376,0.0391,0.0378,0.0378,0.0391,0.0383,0.038,0.0377,0.0377,0.0346,0.034,0.0318,0.0291,0.0283,0.0282,0.0274,0.0195,0.0195,0.0194,0.0241,0.0244,0.0245,0,0,0,0,0,0.0369,0.0391,0.0393,0.0396,0.0401,0.0391,0.0388,0.0379,0.0377,0.0379,0.0357,0.0342,0.028,0.0289,0.0279,0.0277,0.0196,0.0195,0.0194,0.0241,0.0243,0.0245,0,0,0,0,0,0,0.038,0.0392,0.0394,0.0419,0.0409,0.0391,0.0393,0.0383,0.0367,0.0371,0.0337,0.0329,0.0307,0.0281,0.0292,0.0247,0.0234,0.0231,0.0273,0.0275,0.0277,0.0294,0.0272,0,0,0,0,0,0.0389,0.0409,0.0406,0.0424,0.0426,0.041,0.0404,0.04,0.0383,0.0377,0.0353,0.0323,0.0292,0.0278,0.0249,0.0224,0.0188,0.0214,0.0216,0.0218,0.0225,0.0165,0.0163,0.019,0.019,0.019,0,0,0.0397,0.0405,0.0417,0.0426,0.0422,0.0426,0.0409,0.041,0.0412,0.037,0.0366,0.0331,0.0287,0.0264,0.025,0.0244,0.019,0.0217,0.0219,0.0225,0.0164,0.0161,0.0159,0.0189,0.0189,0.0189,0,0,0.0414,0.0434,0.0452,0.0451,0.045,0.0441,0.0445,0.0433,0.043,0.0417,0.0384,0.035,0.0312,0.0276,0.0253,0.0244,0.0203,0.0233,0.0258,0.02,0.0197,0.0194,0.0142,0.0135,0.0234,0.0234,0.0234,0,0.0417,0.045,0.0451,0.0464,0.047,0.0453,0.0468,0.0458,0.0436,0.0428,0.0427,0.0355,0.0318,0.0275,0.0273,0.025,0.0212,0.0256,0.0203,0.02,0.0196,0.0144,0.0135,0.0236,0.0236,0.0236,0.0236,0,0.0443,0.0469,0.048,0.0497,0.0501,0.0511,0.0505,0.0502,0.0496,0.0476,0.0445,0.0394,0.035,0.0328,0.03,0.0253,0.0233,0.0215,0.0203,0.0197,0.0141,0.0131,0.0239,0.0239,0.0238,0.0237,0,0,0.045,0.0491,0.0496,0.0516,0.0524,0.0532,0.0538,0.0533,0.0535,0.0506,0.0495,0.0433,0.0402,0.0372,0.0324,0.0274,0.0213,0.024,0.0236,0.0198,0.0086,0.0072,0.0059,0.0186,0.0185,0.0183,0.0057,0,0.0467,0.0509,0.0523,0.0559,0.0581,0.0579,0.0588,0.0579,0.0565,0.0548,0.0489,0.0461,0.042,0.04,0.0342,0.0243,0.0188,0.0249,0.0089,0.0084,0.008,0.0048,0.0179,0.0049,0.0046,0.0045,0.0043,0,0.0486,0.0515,0.0562,0.0604,0.0615,0.0633,0.065,0.0657,0.0623,0.061,0.0566,0.0519,0.0438,0.0412,0.0248,0.0288,0.0195,0.0121,0.0114,0.0079,0.0051,0.0053,0.0024,0.0026,0.0027,0.0028,0.003,0,0.0496,0.0543,0.0588,0.0602,0.0641,0.0664,0.0683,0.0674,0.0684,0.0649,0.0639,0.0543,0.0496,0.037,0.0218,0.0229,0.0037,0.0029,-0.0072,-0.0074,-0.0043,-0.0039,-0.0084,-0.0084,-0.0084,-0.0083,-0.0083,0,0.0511,0.0547,0.0601,0.0628,0.068,0.0697,0.0742,0.0742,0.0738,0.0738,0.0675,0.0638,0.0483,0.0358,0.0222,0.0039,0.0033,-0.0075,-0.0111,-0.002,-0.0012,-0.005,-0.0045,-0.0088,-0.0087,-0.0086,-0.0085,0,0.0518,0.0552,0.0608,0.0667,0.0691,0.0732,0.0796,0.0815,0.081,0.0807,0.0798,0.0693,0.0526,0.036,0.0143,0.0044,-0.0127,-0.0189,-0.008,-0.0108,-0.0199,-0.0189,-0.0312,-0.0314,-0.0315,-0.0316,-0.0317,0,0.0529,0.0559,0.0643,0.068,0.0715,0.078,0.082,0.0848,0.0864,0.0829,0.0815,0.0677,0.0584,0.0267,0.0096,-0.0164,-0.0194,-0.027,-0.0231,-0.0201,-0.0225,-0.0213,-0.0202,-0.0319,-0.032,-0.032,-0.032,0,0.0544,0.0577,0.0622,0.0699,0.0757,0.0822,0.0878,0.0892,0.0908,0.0908,0.0811,0.0663,0.0473,0.0249,0.0049,-0.0134,-0.0212,-0.0285,-0.0282,-0.0247,-0.0211,-0.0231,-0.0218,-0.0325,-0.0324,-0.0324,-0.0324,0,0.0551,0.0582,0.064,0.0703,0.0775,0.0826,0.0869,0.0877,0.0892,0.0856,0.0817,0.0631,0.0531,0.0261,0.0071,-0.0106,-0.0142,-0.0177,-0.0181,-0.0178,-0.0095,-0.0028,-0.0125,0,0,0,0,0,0.0547,0.0574,0.0636,0.0699,0.0769,0.0814,0.0881,0.0913,0.093,0.0864,0.0843,0.0666,0.0389,0.027,0.0086,0.0041,-0.0174,-0.0178,-0.0217,-0.0352,-0.0346,-0.0273,0,0,0,0,0,0,0.0539,0.0591,0.0622,0.0677,0.072,0.0795,0.0843,0.0864,0.0828,0.0822,0.0671,0.0624,0.0347,0.048,0.0078,0.0027,-0.0019,-0.03,-0.0303,-0.0355,-0.035,-0.0346,-0.0268,0,0,0,0,0]}]]